Location: Calgary
(51.0833°N, 114.0833°W)
Time: 01:53:50
(UTC-06:00)

OTV 5 (USA 277) - Visible Passes

Search period start: 27 May 2018 00:00
Search period end: 06 June 2018 00:00
Orbit: 308 x 326 km, 54.5° (Epoch: 06 May)

Date Brightness Start Highest point End Pass type
(mag) Time Alt. Az. Time Alt. Az. Time Alt. Az.
02 Jun ? 03:50:14 10° SSE 03:51:22 12° SE 03:52:31 10° ESE visible
03 Jun ? 04:03:47 14° SSW 04:05:31 24° SE 04:07:50 10° E visible
04 Jun ? 04:17:25 12° SW 04:19:48 49° SSE 04:22:29 10° ENE visible
05 Jun ? 03:00:09 17° SE 03:00:10 17° SE 03:02:04 10° E visible
05 Jun ? 04:31:25 10° WSW 04:34:10 86° NNW 04:36:56 10° ENE visible
